GFSNE_sfc_thetae_168.txt.gz
Theta_e
353 356 357 356 350 349 347 340 329 323 323 328 329 339 336 338 339 340 341 340 342 341 338 337 337 338 338 339 340 341 342 343 343 344 345 347 351 353
354 350 348 345 343 337 334 333 331 327 323 328 329 337 338 336 338 340 339 339 338 338 337 335 336 336 336 337 337 338 339 339 340 340 340 341 342 344
343 341 340 341 335 334 334 333 331 329 325 328 331 335 338 336 337 338 338 340 338 337 336 335 334 334 334 334 335 336 337 337 338 338 339 339 340 341
337 338 336 334 337 338 333 335 334 334 328 331 331 331 333 336 336 337 335 335 336 336 336 334 333 332 331 331 331 331 330 331 333 334 336 337 338 339
336 336 335 335 334 333 333 331 330 330 330 326 325 329 330 332 332 335 336 338 335 336 334 333 332 331 330 329 327 325 323 323 324 325 328 329 332 336
336 335 334 332 333 331 329 329 329 325 324 324 325 326 325 332 331 326 327 334 335 335 336 333 333 333 332 330 329 328 323 320 319 319 320 320 321 325
333 333 332 330 328 328 325 325 326 322 322 325 324 324 323 324 325 329 329 326 328 332 331 331 331 334 335 331 333 331 326 324 321 319 318 317 316 318
328 329 329 329 328 326 323 323 323 322 324 321 323 323 321 323 328 329 328 326 321 329 327 326 329 328 332 334 331 328 327 327 324 322 320 317 316 316
326 325 323 326 325 324 321 322 323 324 324 324 320 321 320 326 328 328 329 328 325 325 327 322 327 326 331 330 326 324 323 322 321 321 320 319 317 316
325 324 322 321 320 316 319 323 326 327 327 327 322 324 325 328 327 328 328 328 327 327 327 316 323 324 328 330 326 323 321 320 320 319 319 317 314 313
324 324 320 318 312 311 318 315 315 321 321 320 320 319 319 318 320 324 323 321 315 317 322 318 320 322 324 327 331 323 320 318 317 318 318 317 313 311
322 322 316 312 308 307 315 313 308 311 313 318 321 324 327 331 321 328 319 312 311 311 316 312 313 316 316 324 327 328 329 316 315 315 315 314 311 330
314 313 313 306 305 304 304 307 303 308 313 321 320 321 323 325 324 324 323 317 311 309 314 313 312 313 316 317 322 325 327 328 333 327 310 310 309 320
312 310 311 302 301 301 302 302 302 306 313 315 316 315 315 314 322 322 320 316 315 312 314 314 311 311 311 312 314 322 322 327 330 337 337 322 309 311
309 307 304 301 300 301 300 301 302 304 309 311 311 311 315 316 320 319 320 316 314 314 318 320 318 316 314 312 314 317 321 322 325 332 350 340 336 329
310 310 303 301 300 299 299 301 305 307 307 307 305 309 312 314 315 318 314 313 310 312 317 321 321 321 316 316 317 317 321 320 333 336 339 342 341 340
305 308 304 299 298 296 297 300 301 305 305 305 305 305 308 312 315 318 315 312 309 310 312 318 321 323 321 319 315 317 319 321 326 339 337 335 334 337
307 304 299 298 296 294 297 301 305 304 304 303 304 305 305 309 311 314 314 312 309 310 313 316 316 318 318 320 318 321 321 320 324 333 339 335 335 336
306 303 301 298 298 300 302 302 302 304 306 304 304 305 305 307 310 311 307 310 309 310 314 315 314 314 313 312 315 310 319 324 327 329 336 337 338 344
304 302 300 301 301 300 300 301 302 303 303 304 305 305 306 306 308 311 312 309 310 312 315 315 313 314 316 316 313 313 305 317 323 330 334 341 340 323
301 301 301 300 300 301 301 301 303 302 303 304 304 304 306 307 307 309 312 307 309 313 313 314 314 315 318 318 311 311 313 308 313 327 327 332 336 340
302 301 301 301 300 301 301 301 301 302 302 302 303 304 305 308 308 309 311 312 311 313 315 317 317 316 315 312 311 312 312 315 312 309 309 310 317 333
301 301 301 301 300 300 300 300 300 301 301 301 302 303 305 307 309 310 311 311 315 312 315 317 317 315 312 312 310 311 312 313 312 312 311 309 308 309

GFSNE_sfc_thetae_174.txt.gz
Theta_e
349 349 346 344 344 341 337 333 327 321 321 327 327 335 336 334 341 337 339 341 343 340 336 335 335 336 337 338 339 339 339 339 340 340 341 344 347 349
345 345 343 340 337 335 334 333 331 326 320 327 328 329 333 338 337 337 337 338 337 338 335 334 334 335 335 336 337 337 337 337 337 337 338 339 340 343
341 337 338 340 337 330 330 330 329 327 322 325 328 331 331 333 333 334 334 333 334 336 336 336 334 333 333 334 335 335 335 336 336 336 337 337 339 340
335 335 333 333 332 332 331 328 327 328 324 320 325 325 326 329 329 330 330 332 332 334 335 333 333 332 330 330 330 330 330 331 332 333 334 335 337 339
330 330 331 331 328 328 328 326 327 326 325 322 320 323 324 327 327 328 329 329 332 335 332 331 329 330 328 328 327 325 323 323 325 326 328 330 332 336
329 331 330 328 325 325 325 324 324 322 322 321 320 321 323 325 326 324 323 326 326 331 333 331 331 332 332 329 328 327 322 319 318 320 321 321 323 327
330 328 326 327 325 322 318 318 318 318 317 317 317 319 320 321 320 322 321 323 324 326 326 327 326 326 325 326 328 329 326 324 320 318 318 318 317 319
325 326 326 325 319 318 317 318 317 315 315 316 317 317 318 320 321 320 320 319 317 326 324 323 325 321 322 323 325 324 323 324 323 321 319 318 317 316
325 324 320 319 315 311 312 313 315 320 321 315 311 315 317 320 319 318 318 318 318 324 323 318 319 317 319 320 322 321 322 321 321 320 319 318 316 315
323 321 319 314 308 306 306 309 312 315 316 312 309 311 315 317 318 318 318 319 322 323 323 314 318 315 318 318 320 320 318 318 318 319 318 317 315 313
321 311 310 308 305 305 303 305 308 306 311 313 313 314 315 317 319 319 317 316 313 314 318 316 315 314 315 315 316 318 317 315 315 317 318 317 314 312
316 316 308 305 304 303 302 302 300 300 302 304 308 313 318 320 316 320 320 314 313 312 316 313 313 313 309 314 314 317 318 317 313 313 313 314 312 318
312 313 312 305 302 301 302 303 299 302 303 305 310 311 308 308 308 312 318 318 312 310 315 315 313 312 310 309 312 314 316 317 320 319 309 309 308 316
313 312 312 303 301 301 301 302 302 304 306 306 305 304 305 305 308 314 314 318 317 314 315 315 312 312 311 310 309 314 315 318 321 322 326 315 308 309
311 311 306 303 302 304 304 304 305 307 306 304 303 303 305 307 310 313 313 314 316 315 316 317 316 316 315 314 313 313 313 316 319 322 326 327 327 316
309 310 310 307 305 306 308 308 308 307 305 304 305 307 307 308 309 310 309 310 310 311 316 319 319 317 315 316 317 314 316 313 319 320 325 327 328 331
301 310 308 306 305 304 305 306 306 306 304 305 306 306 306 306 307 310 310 310 308 309 312 317 318 319 314 313 313 315 315 316 318 322 323 324 330 333
303 306 304 304 303 302 302 303 304 305 304 304 305 304 304 305 306 309 310 310 308 310 311 316 315 314 315 313 313 308 314 317 319 321 322 325 326 332
308 305 304 304 303 302 302 302 302 304 305 303 304 304 304 305 306 307 308 309 309 311 314 316 314 312 309 307 313 310 307 311 315 320 324 327 326 330
306 305 304 304 304 303 303 302 302 304 303 302 303 304 304 305 306 307 308 308 309 313 314 317 315 313 310 309 310 312 307 307 310 317 321 326 328 323
304 305 307 305 305 304 304 304 304 303 302 301 301 303 305 306 308 307 308 305 306 311 313 314 318 315 318 316 311 311 314 309 308 308 313 320 321 326
304 304 306 307 306 306 305 304 303 301 300 300 301 304 305 306 308 307 308 308 309 310 315 316 320 319 316 311 310 311 313 314 311 309 308 308 310 314
305 305 304 305 305 304 304 303 302 300 299 299 301 303 304 305 307 308 308 309 309 310 312 314 316 316 314 315 311 311 312 313 313 310 308 308 307 307

GFSNE_sfc_thetae_177.txt.gz
Theta_e
340 337 336 336 333 330 326 322 320 315 317 318 319 326 329 329 332 331 331 337 340 338 335 334 335 335 336 337 337 338 338 339 340 340 340 342 343 343
332 328 328 329 328 326 325 324 324 320 315 318 320 323 325 328 330 328 329 335 334 335 334 333 333 334 334 335 335 336 336 337 338 338 337 337 337 339
327 325 324 326 325 325 324 322 321 320 315 319 321 322 321 322 323 325 328 326 326 333 333 333 332 332 331 332 333 333 334 335 336 336 337 336 336 338
321 321 322 325 321 321 322 320 320 319 316 314 318 319 319 321 322 322 325 328 326 332 332 332 330 329 328 327 328 328 328 329 331 332 334 335 336 337
319 322 321 320 318 318 317 317 316 317 316 315 314 318 318 321 321 322 322 323 325 331 330 329 330 329 328 326 325 323 322 321 323 325 327 329 331 333
321 321 320 318 315 313 314 313 313 311 312 312 313 315 316 318 318 317 317 318 320 325 327 328 330 330 330 326 325 324 322 319 317 318 320 321 322 326
319 321 320 321 319 316 311 309 309 309 312 314 314 313 313 315 315 318 315 319 319 322 323 323 324 324 325 323 325 326 322 320 318 318 317 316 317 319
316 317 316 316 310 310 311 312 312 311 312 314 311 308 310 312 315 315 317 316 314 321 320 319 323 320 320 316 323 321 320 319 318 319 318 317 316 317
314 313 313 310 305 303 305 306 309 312 312 311 307 307 307 312 313 314 315 315 315 318 320 314 317 316 318 319 320 319 318 317 317 317 318 318 316 315
311 309 305 302 302 303 300 299 302 304 304 306 307 308 310 311 313 315 316 316 316 317 317 311 315 314 316 317 319 319 317 316 316 315 315 315 314 312
309 306 303 300 306 305 299 297 299 299 305 307 309 311 313 315 315 310 309 310 310 310 314 313 313 313 315 316 318 318 316 314 313 314 314 314 312 311
308 307 309 305 305 304 297 295 296 296 298 302 304 306 306 307 312 306 308 310 308 307 313 310 311 312 309 315 316 316 316 313 311 311 311 311 310 316
305 305 306 307 304 303 303 296 297 301 302 301 303 303 303 304 305 307 310 311 310 308 313 313 311 311 311 311 314 315 315 315 315 314 310 307 307 315
303 303 305 304 302 301 302 304 305 306 299 300 301 301 303 304 305 307 308 310 313 313 314 314 312 314 313 312 311 316 315 315 315 316 319 313 306 309
303 306 307 304 302 302 304 306 305 299 299 299 300 300 303 305 306 306 308 310 311 313 315 315 316 316 315 313 313 316 313 316 316 313 319 322 311 308
303 300 305 307 306 304 300 300 299 299 300 297 299 301 302 303 303 305 305 307 308 309 314 318 318 316 312 313 313 310 315 313 317 315 320 323 326 321
298 299 296 296 295 295 295 297 297 298 296 298 299 300 300 301 302 304 305 306 305 307 312 317 318 317 315 312 310 311 310 316 318 319 316 315 321 325
296 296 295 295 294 294 294 295 295 299 296 298 299 299 299 300 301 304 306 305 305 308 313 316 316 314 314 313 313 309 309 310 315 319 320 314 316 323
297 295 295 295 295 295 295 295 294 298 296 296 297 297 299 301 302 303 304 304 304 307 313 315 315 313 309 307 313 309 305 307 310 316 321 320 319 321
296 296 295 295 295 295 296 295 295 296 295 296 296 298 300 300 301 302 303 303 304 305 311 313 314 314 311 309 310 312 306 305 306 309 312 316 319 321
296 296 297 297 297 298 297 296 296 294 294 294 295 297 300 299 300 302 302 302 302 305 307 310 314 314 316 316 311 311 310 308 307 304 304 309 316 319
297 296 297 298 297 297 296 295 294 293 293 294 295 297 298 298 298 301 301 302 303 303 304 309 312 313 311 310 310 311 312 313 310 308 308 306 306 308
297 298 297 296 296 296 295 294 293 292 292 293 293 295 296 296 299 301 301 302 303 303 302 307 308 309 309 308 308 309 309 307 308 306 305 306 306 306

GFSNE_sfc_thetae_180.txt.gz
Theta_e
327 324 324 326 324 322 321 319 315 312 312 315 317 322 323 325 326 325 326 332 336 336 334 333 334 335 336 336 337 337 337 338 339 339 341 342 344 343
323 320 320 321 320 320 319 318 317 313 310 314 316 319 321 322 325 325 323 332 331 333 332 332 332 333 333 333 334 335 335 335 336 336 337 338 338 340
318 319 319 318 317 317 318 317 315 314 310 313 316 318 317 317 320 322 324 323 323 330 331 332 331 330 330 330 331 332 334 334 334 335 336 337 337 337
317 318 317 321 314 314 314 311 311 312 311 309 313 314 315 316 318 318 322 324 322 327 330 330 329 328 327 327 326 326 326 326 328 330 333 334 336 337
318 316 316 314 311 311 309 309 309 310 308 309 310 315 314 315 316 318 318 317 321 327 327 327 328 328 328 326 324 322 319 319 321 322 324 326 328 332
318 318 316 313 309 307 307 305 306 306 309 311 311 313 310 312 317 316 314 317 317 321 323 326 327 328 327 326 325 324 319 316 315 316 317 317 318 322
316 316 315 314 313 311 305 303 303 308 309 310 311 307 308 309 311 314 314 316 317 317 318 320 320 320 321 324 326 325 321 320 316 315 314 314 314 315
311 311 310 308 307 309 308 308 308 306 305 307 307 305 306 308 312 311 312 312 309 316 314 315 318 316 317 318 323 322 320 319 317 316 315 314 314 315
307 305 306 305 304 302 303 304 304 308 307 302 302 304 304 309 307 308 307 309 311 314 315 311 315 313 317 318 319 319 318 317 317 316 315 314 314 313
305 303 301 301 302 303 298 297 297 299 299 301 301 303 304 306 307 309 309 311 314 315 314 308 314 312 316 317 319 319 318 317 316 315 314 313 311 310
306 304 303 302 307 307 298 296 296 297 303 307 309 310 311 313 311 306 303 303 307 307 313 311 310 311 313 314 316 318 317 315 314 314 314 312 310 309
304 305 310 308 308 306 299 295 294 297 298 302 300 302 304 303 311 306 304 301 305 305 312 308 309 311 308 314 315 317 317 314 312 311 310 310 308 310
302 302 303 308 306 303 303 297 297 301 301 297 297 300 300 302 304 305 306 305 304 304 310 311 310 311 312 312 315 317 317 317 316 314 308 306 306 309
300 300 301 304 302 302 301 304 304 302 296 295 297 298 299 300 302 303 304 305 308 308 310 312 310 313 312 311 311 315 315 318 316 314 315 313 308 307
300 303 306 303 301 299 303 303 302 296 295 295 295 297 299 300 301 303 305 306 307 307 312 314 314 316 314 312 310 311 310 315 318 316 315 317 313 306
299 297 303 302 302 300 297 297 296 296 297 293 293 297 299 300 300 302 302 304 304 306 312 317 318 317 314 314 312 310 310 309 317 317 318 321 315 310
296 297 295 294 293 293 294 294 295 295 295 294 294 296 297 299 300 302 303 303 302 303 307 314 317 317 316 312 308 307 307 308 312 316 318 317 320 320
295 294 293 293 293 293 293 293 294 296 294 293 294 295 296 297 299 301 302 301 301 303 306 311 313 313 314 311 310 305 306 305 308 313 319 314 316 321
294 292 293 293 293 293 294 293 293 293 292 292 292 294 296 298 298 299 300 300 301 303 306 310 312 311 307 307 312 308 304 304 305 307 311 315 317 320
293 294 294 294 294 294 294 293 293 292 292 292 293 294 295 296 296 297 298 299 300 301 303 308 309 309 307 307 310 308 306 305 303 302 305 309 319 314
294 294 295 295 294 294 293 293 291 291 291 290 292 292 294 294 295 296 298 299 300 300 300 303 307 311 310 311 308 308 310 308 305 302 303 305 309 311
294 295 295 295 294 293 292 291 290 291 290 290 291 291 293 293 294 296 297 297 298 299 299 303 305 305 306 304 304 305 306 307 308 306 305 304 301 299
296 296 294 294 292 292 291 291 290 290 289 289 289 290 292 292 294 296 296 297 298 298 300 300 301 301 303 302 302 303 302 303 302 303 303 306 304 304